Regional Weather Roundup
Issued by NWS

Home | Current Version | Previous Version | Text Only | Print | Product List | Glossary On
Versions: 1 2 3 4 5 6 7 8 9 10 11 12 13 14 15 16 17 18 19 20 21 22 23 24 25 26 27
000
ASCA42 TJSJ 212110
RWRPR
PUERTO RICO/U.S. VIRGIN ISLANDS HOURLY WEATHER ROUNDUP
NATIONAL WEATHER SERVICE SAN JUAN PR
500 PM AST FRI JUL 21 2017

PRZ001>002-007>008-010-212200-
PUERTO RICO

CITY           SKY/WX    TMP DP  RH WIND       PRES   REMARKS
SAN JUAN LMM   MOSUNNY   86  75  70 E17G24    29.99S HX  95
AGUADILLA      MOSUNNY   82  75  78 E15G21    30.01S
CEIBA          CLOUDY    84  75  74 E9        30.01S HX  92
$$

VIZ001>002-212200-
U.S. VIRGIN ISLANDS

CITY           SKY/WX    TMP DP  RH WIND       PRES   REMARKS
CHARLOTTE AMA  SUNNY     88  75  66 E14       29.98F HX  97
CHRISTIANSTED  PTSUNNY   86  75  70 E16       29.98F HX  95
$$

HOURLY WEATHER ROUNDUP FOR THE NEWS MEDIA

CITY           SKY/WX    TMP DP  RH WIND       PRES   REMARKS
ORLANDO        MOSUNNY   77  73  88 SE9       30.08F
NEW YORK       PTSUNNY   94  64  37 W14       29.86F HX  95
NEWARK         CLOUDY    93  66  40 W14G20    29.86S HX  96
CHICAGO        CLOUDY    86  70  58 S8        29.93S HX  90
HARTFORD       CLOUDY    87  68  52 SW9       29.79S HX  90
BOSTON         PTSUNNY   90  61  37 W9        29.77F HX  90
DALLAS         MOSUNNY   98  67  36 S9        29.93F HX 102
PHILADELPHIA   PTSUNNY   93  68  43 SW12      29.89F HX  97
LOS ANGELES    SUNNY     76  64  66 W13       29.95F
WASHINGTON DC  MOSUNNY   91  69  48 SW3       29.90F HX  96



USA.gov is the U.S. government's official web portal to all federal, state and local government web resources and services.